Retour au catalogue

DMSP 5D-2 F13 DEB

ActifSSO
NORAD 40478·DEBRIS·🇺🇸 United States

Lancé Mar 24, 1995 depuis Vandenberg Space Force Base

Loading…

Prochains Passages (prochaines 24 heures)

TLE

FraisSource: Space-Track

Époque: Sep 14, 2026, 14:19 UTC

1 40478U 95015BW  26257.59677577  .00002362  00000-0  11778-2 0  9997
2 40478  98.9985 210.2975 0064714 307.1007  52.4263 14.16813352589805

Suivez DMSP 5D-2 F13 DEB en temps réel avec AllMySat

Download on the App Store